Regional Weather Roundup
Issued by NWS

Home | Current Version | Previous Version | Text Only | Print | Product List | Glossary Off
Versions: 1 2 3 4 5 6 7 8 9 10 11 12 13 14 15 16 17 18 19 20 21 22 23 24 25 26 27 28 29 30 31 32 33 34 35 36 37 38 39 40 41 42 43 44 45 46 47 48 49 50

000
ASUS43 KIND 280459
RWRIN

WEATHER ROUNDUP FOR INDIANA
NATIONAL WEATHER SERVICE INDIANAPOLIS IN
1200 AM EST FRI NOV 28 2014

NOTE: "FAIR" INDICATES FEW OR NO CLOUDS BELOW 12,000 FEET WITH NO
SIGNIFICANT WEATHER AND/OR OBSTRUCTIONS TO VISIBILITY.

* - STATION DOES NOT REPORT WEATHER SUCH AS PRECIPITATION OR FOG.

+ - STATION NOT QUALITY CONTROLLED BY THE NATIONAL WEATHER SERVICE.
    USE DATA WITH CAUTION...ESPECIALLY DEWPOINT AND RELATIVE
    HUMIDITY OBSERVATIONS.

INZ001>003-010>013-019-020-280600-
NORTHWEST INDIANA

CITY           SKY/WX    TMP DP  RH WIND       PRES   REMARKS
VALPARAISO     NOT AVBL

$$

LMZ046-743>745-280600-
SOUTHERN LAKE MICHIGAN

STATION/POSITION TIME  TEMP WIND        PRES
                       AIR  DIR/SP/G
                 (UTC) (F)  (DEG/KT/KT) (MB)
MICHIGAN CITY    0400   24  230/ 11/ 14   N/A

$$

INZ004-005-014>016-021>024-280600-
NORTH CENTRAL INDIANA

CITY           SKY/WX    TMP DP  RH WIND       PRES   REMARKS
GOSHEN         CLOUDY    22  17  81 NW7       30.35S WCI  13
SOUTH BEND     CLOUDY    23  14  68 W8        30.36S WCI  14

$$

INZ006>009-017-018-025>027-280600-
NORTHEAST INDIANA

CITY           SKY/WX    TMP DP  RH WIND       PRES   REMARKS
ANGOLA *+      CLOUDY    21  16  79 NW3       30.33R
FORT WAYNE     CLOUDY    23  18  81 W10       30.37S WCI  12

$$

INZ028-029-035-036-043>045-051>053-280600-
WEST CENTRAL INDIANA

CITY           SKY/WX    TMP DP  RH WIND       PRES   REMARKS
GREENCASTLE +  PTCLDY    21  18  86 CALM      30.41F
LAFAYETTE      PTCLDY    19  15  84 W6        30.42S WCI  11
TERRE HAUTE    CLEAR     19  14  81 NW3       30.44F

$$

INZ030>032-037>040-046>048-054>057-064-065-280600-
CENTRAL INDIANA

CITY           SKY/WX    TMP DP  RH WIND       PRES   REMARKS
INDIANAPOLIS   FLURRIES  24  16  71 NW9       30.39S WCI  14
-EAGLE CREEK   CLOUDY    24  16  71 NW8       30.40R WCI  15
KOKOMO *+      CLOUDY    25  16  68 W6        30.39S WCI  18
MT COMFORT *+  MOCLDY    23  12  63 NW5       30.40R WCI  17
SHELBYVILLE    CLOUDY    26  18  71 W7        30.40R WCI  18

$$

INZ033-034-041-042-049-050-058-059-280600-
EAST CENTRAL INDIANA

CITY           SKY/WX    TMP DP  RH WIND       PRES   REMARKS
MUNCIE         PTCLDY    22  16  78 W5        30.38R WCI  16

$$

INZ060-061-067>069-081>083-085>088-280600-
SOUTHWEST INDIANA

CITY           SKY/WX    TMP DP  RH WIND       PRES   REMARKS
EVANSVILLE     CLEAR     23  19  85 W3        30.47S
HUNTINGBURG *+ CLEAR     25  16  68 W5        30.45F WCI  19

$$

INZ062-063-066-070>080-084-089>092-280600-
SOUTH CENTRAL AND SOUTHEAST INDIANA

CITY           SKY/WX    TMP DP  RH WIND       PRES   REMARKS
BLOOMINGTON    MOCLDY    22  18  85 W7        30.42R WCI  13

$$



USA.gov is the U.S. government's official web portal to all federal, state and local government web resources and services.